Nouasseur, Morocco

6:04 AM WET on February 11, 2016 (GMT +0000)
Mohamed V

Weather History for GMMN - June, 2013

Change the Weather History Date:

Monday, June 24, 2013

  Actual Average Record
Temperature  
Mean Temperature 76 °F -  
Max Temperature 96 °F 81 °F 96 °F (2013)
Min Temperature 57 °F 63 °F 57 °F (2013)
Cooling Degree Days 12    
Growing Degree Days 26 (Base 50)    
Moisture  
Dew Point 60 °F    
Average Humidity 61    
Maximum Humidity 94    
Minimum Humidity 25    
Precipitation  
Precipitation 0.00 in - - ()
Sea Level Pressure  
Sea Level Pressure 29.90 in    
Wind  
Wind Speed 6 mph ()    
Max Wind Speed 14 mph    
Max Gust Speed -    
Visibility 5.6 miles    
Events      
Averages and records for this station are not official NWS values.
T = Trace of Precipitation, MM = Missing Value Source: Averaged Metar Reports

Daily Weather History Graph

Daily Weather History Graph

Search for Another Location

Airport or City:

Trip Planner

Search our weather history database for the weather conditions in past years. The results will help you decide how hot, cold, wet, or windy it might be!

Date:

Astronomy

Jun. 24, 2013 Rise Set
Actual Time 6:21 AM WEST 8:43 PM WEST
Civil Twilight 5:53 AM WEST 9:12 PM WEST
Nautical Twilight 5:17 AM WEST 9:48 PM WEST
Astronomical Twilight 4:38 AM WEST 10:26 PM WEST
Moon 9:41 PM WEST (6/24) 7:28 AM WEST (6/24)
Length of Visible Light 15h 19m
Length of Day
14h 21m
Full, 98% of the Moon is Illuminated
Jun 24
Full
Jun 30
Last Quarter
Jul 8
New
Jul 16
First Quarter
Jul 22
Full

Hourly Weather History & Observations

Time (WEST) Temp. Heat Index Dew Point Humidity Pressure Visibility Wind Dir Wind Speed Gust Speed Precip Events Conditions
12:00 AM 66.2 °F - 62.6 °F 88% 29.92 in - West 5.8 mph - N/A   Clear
12:30 AM 66.2 °F - 60.8 °F 83% 29.92 in - West 4.6 mph - N/A   Clear
1:00 AM 65 °F - 61 °F 83% 29.91 in 6 mi SW 4.6 mph - -  
1:00 AM 64.4 °F - 60.8 °F 88% 29.92 in - SW 4.6 mph - N/A   Clear
1:30 AM 64.4 °F - 60.8 °F 88% 29.92 in - SW 5.8 mph - N/A   Clear
2:00 AM 62.6 °F - 59.0 °F 88% 29.89 in - WSW 5.8 mph - N/A   Clear
2:30 AM 62.6 °F - 59.0 °F 88% 29.89 in 6.2 mi WSW 3.5 mph - N/A   Unknown
3:00 AM 62.6 °F - 59.0 °F 88% 29.89 in 6.2 mi Calm Calm - N/A   Unknown
3:30 AM 62.6 °F - 59.0 °F 88% 29.89 in 6.2 mi SSE 3.5 mph - N/A   Unknown
4:00 AM 60 °F - 56 °F 84% 29.89 in 6 mi South 4.6 mph - -  
4:00 AM 60.8 °F - 57.2 °F 88% 29.89 in - South 4.6 mph - N/A   Clear
4:30 AM 59.0 °F - 57.2 °F 94% 29.89 in 5.0 mi South 8.1 mph - N/A   Unknown
5:00 AM 60.8 °F - 59.0 °F 94% 29.89 in 4.3 mi SSW 6.9 mph - N/A   Unknown
5:30 AM 60.8 °F - 57.2 °F 88% 29.89 in 3.7 mi SW 6.9 mph - N/A   Unknown
6:00 AM 59.0 °F - 57.2 °F 94% 29.89 in 5.6 mi SW 5.8 mph - N/A   Unknown
6:30 AM 60.8 °F - 59.0 °F 94% 29.89 in 5.6 mi SW 8.1 mph - N/A   Unknown
7:00 AM 60 °F - 58 °F 90% 29.90 in 6 mi South 5.8 mph - -  
7:00 AM 60.8 °F - 57.2 °F 88% 29.89 in - South 5.8 mph - N/A   Clear
7:30 AM 62.6 °F - 60.8 °F 94% 29.89 in 3.7 mi South 5.8 mph - N/A   Unknown
8:00 AM 66.2 °F - 62.6 °F 88% 29.89 in - South 3.5 mph - N/A   Clear
8:30 AM 71.6 °F - 62.6 °F 73% 29.89 in - SSW 10.4 mph - N/A   Clear
9:00 AM 75.2 °F - 60.8 °F 61% 29.92 in - SW 6.9 mph - N/A   Clear
9:30 AM 78.8 °F - 60.8 °F 54% 29.89 in - SW 4.6 mph - N/A   Clear
10:00 AM 83 °F - 59 °F 34% 29.88 in 6 mi WSW 4.6 mph - -  
10:00 AM 82.4 °F 82.5 °F 59.0 °F 45% 29.89 in - WSW 4.6 mph - N/A   Clear
10:30 AM 86.0 °F 84.9 °F 57.2 °F 37% 29.89 in - WSW 4.6 mph - N/A   Clear
11:00 AM 89.6 °F 87.7 °F 55.4 °F 31% 29.89 in - WSW 3.5 mph - N/A   Clear
11:30 AM 91.4 °F 89.4 °F 55.4 °F 29% 29.92 in - West 5.8 mph - N/A   Clear
12:00 PM 93.2 °F 91.9 °F 57.2 °F 30% 29.92 in - West 4.6 mph - N/A   Clear
12:30 PM 95.0 °F 93.7 °F 57.2 °F 28% 29.89 in - NNW 5.8 mph - N/A   Clear
1:00 PM 95 °F - 63 °F 25% 29.86 in 6 mi NNW 10.4 mph - -  
1:00 PM 95.0 °F 96.0 °F 62.6 °F 34% 29.89 in - NNW 10.4 mph - N/A   Clear
1:30 PM 93.2 °F 94.9 °F 64.4 °F 38% 29.89 in - NNW 11.5 mph - N/A   Clear
2:00 PM 93.2 °F 94.9 °F 64.4 °F 38% 29.89 in - NNW 12.7 mph - N/A   Clear
2:30 PM 89.6 °F 91.1 °F 64.4 °F 43% 29.89 in - NNW 13.8 mph - N/A   Clear
3:00 PM 89.6 °F 90.1 °F 62.6 °F 40% 29.89 in - NNW 13.8 mph - N/A   Clear
3:30 PM 89.6 °F 88.9 °F 59.0 °F 36% 29.89 in - NNW 11.5 mph - N/A   Clear
4:00 PM 90 °F - 61 °F 27% 29.86 in 6 mi NNW 12.7 mph - -  
4:00 PM 89.6 °F 89.5 °F 60.8 °F 38% 29.89 in - NNW 12.7 mph - N/A   Clear
4:30 PM 89.6 °F 89.5 °F 60.8 °F 38% 29.89 in - NNW 12.7 mph - N/A   Clear
5:00 PM 89.6 °F 89.5 °F 60.8 °F 38% 29.89 in - NNW 12.7 mph - N/A   Clear
5:30 PM 89.6 °F 89.5 °F 60.8 °F 38% 29.89 in 6.2 mi NNW 11.5 mph - N/A   Unknown
6:00 PM 89.6 °F 89.5 °F 60.8 °F 38% 29.89 in - NNW 11.5 mph - N/A   Clear
6:30 PM 87.8 °F 87.6 °F 60.8 °F 40% 29.89 in - NNW 11.5 mph - N/A   Clear
7:00 PM 87 °F - 61 °F 32% 29.85 in 6 mi NNW 10.4 mph - -  
7:00 PM 86.0 °F 86.1 °F 60.8 °F 43% 29.89 in - NNW 10.4 mph - N/A   Clear
7:30 PM 84.2 °F 84.4 °F 60.8 °F 45% 29.89 in - NNW 9.2 mph - N/A   Clear
8:00 PM 84.2 °F 83.0 °F 55.4 °F 37% 29.89 in - North 8.1 mph - N/A   Clear
8:30 PM 82.4 °F 83.4 °F 62.6 °F 51% 29.89 in - NW 5.8 mph - N/A   Clear
9:00 PM 77.0 °F - 62.6 °F 61% 29.92 in - WNW 6.9 mph - N/A   Clear
9:30 PM 75.2 °F - 62.6 °F 65% 29.92 in - WNW 5.8 mph - N/A   Clear
10:00 PM 73 °F - 63 °F 64% 29.92 in 6 mi NW 5.8 mph - -  
10:00 PM 73.4 °F - 62.6 °F 69% 29.95 in - NW 5.8 mph - N/A   Clear
10:30 PM 71.6 °F - 62.6 °F 73% 29.95 in - West 4.6 mph - N/A   Clear
11:00 PM 69.8 °F - 62.6 °F 78% 29.95 in - West 4.6 mph - N/A   Clear
11:30 PM 68.0 °F - 62.6 °F 83% 29.95 in - WNW 5.8 mph - N/A   Clear